Regional Weather Roundup
Issued by NWS

Home | Current Version | Previous Version | Text Only | Print | Product List | Glossary On
Versions: 1 2 3 4 5 6 7 8 9 10 11 12 13 14 15 16 17 18 19 20 21 22 23 24 25 26 27 28 29 30 31 32 33 34 35 36 37 38 39 40 41 42 43 44 45 46 47 48 49 50
000
ASUS45 KBOI 011110
RWRID
WEATHER ROUNDUP FOR IDAHO
NATIONAL WEATHER SERVICE BOISE ID
400 AM MST SUN FEB 01 2015

NOTE: "FAIR" INDICATES FEW OR NO CLOUDS BELOW 12000 FEET
WITH NO SIGNIFICANT WEATHER AND/OR OBSTRUCTIONS TO VISIBILITY

IDZ012-014-011200-
SOUTHWEST IDAHO


CITY           SKY/WX    TMP DP  RH WIND       PRES   REMARKS
BOISE          MOCLDY    35  24  64 SE13      30.18F WCI  26
CALDWELL       MOCLDY    30  23  74 SE5       30.20F WCI  25
MOUNTAIN HOME  PTCLDY    28  25  91 E8        30.19F WCI  19
$$

IDZ016-017-011200-
SOUTHCENTRAL IDAHO


CITY           SKY/WX    TMP DP  RH WIND       PRES   REMARKS
BURLEY         FOG       22  20  92 CALM      30.18S VSB 3/4
JEROME         CLEAR     28  25  88 NE9       30.19F WCI  19
TWIN FALLS     CLEAR     36  24  62 SW7       30.18S WCI  30
$$

IDZ019>023-011200-
SOUTHEAST IDAHO


CITY           SKY/WX    TMP DP  RH WIND       PRES   REMARKS
IDAHO FALLS    CLOUDY    29  26  89 NE3       30.20R
POCATELLO      CLOUDY    29  28  96 N5        30.21R WCI  24
REXBURG        CLOUDY    27  25  92 CALM      30.19F
$$

IDZ006-010-011-018-031-032-011200-
CENTRAL IDAHO MOUNTAINS


CITY           SKY/WX    TMP DP  RH WIND       PRES   REMARKS
MCCALL         CLOUDY    22  15  75 CALM      30.15S
HAILEY         PTCLDY    18  12  79 N5        30.17F WCI  11
STANLEY          N/A      1  -4  79 CALM      30.19F
SALMON         CLOUDY    23  19  86 CALM      30.25F
CHALLIS        CLEAR     17  14  88 NW3       30.19F
$$

IDZ002-004-006-007-026-011200-
NORTHERN IDAHO


CITY           SKY/WX    TMP DP  RH WIND       PRES   REMARKS
LEWISTON       CLOUDY    33  30  88 SE5       30.25F WCI  29
LOWELL           N/A     29  27  92 CALM      30.31F
COEUR D`ALENE  CLOUDY    30  27  86 E6        30.23S WCI  24
MULLAN PASS    CLOUDY    22  18  85 SE10      30.09F WCI  11
$$


USA.gov is the U.S. government's official web portal to all federal, state and local government web resources and services.